sat.trackr.live / text

‹ back to catalog

FALCON HEAVY R/B

NORAD 68894 · 2026-096B

ROCKET_BODY UNKNOWN UNKNOWN

§ Identity

Operator
Country
US
Launch date
2026-04-29
Launch site
AFETR
Launch vehicle
Mass (kg)
RCS (m²)

External: N2YO · Heavens-Above · Gunter

§ Orbital elements

Epoch: 2026-05-28T12:59:12.768000Z

Period
1,059.45 min
Inclination
2.6631°
Eccentricity
0.1483149
Mean motion
1.35919126 rev/d
Perigee alt
22,941.6 km
Apogee alt
33,153.3 km
Semi-major
34,425.6 km
B*
0.0000e+0
RAAN
279.9020°
Arg perigee
181.1225°
Mean anomaly
178.7242°
Rev number
39

§ Raw data

FALCON HEAVY R/B1 68894U 26096B   26148.54112000 -.00000109  00000+0  00000+0 0  99912 68894   2.6631 279.9020 1483149 181.1225 178.7242  1.35919126   394

JSON: /api/v1/satellites/68894 · /tle

For live sub-satellite position, see the globe view (requires WebGL).

§ Visibility from observer

Set your observer location to see the next 7 days of passes ≥ 10°. The values pass through the URL so the page stays shareable.

No JS? Fill the form by hand. The geolocation button needs JavaScript.